Weather History for KPKD - September, 2011

Change the Weather History Date:

Sunday, September 4, 2011

  Actual Average Record
Temperature  
Mean Temperature 55 °F -  
Max Temperature 64 °F 75 °F 94 °F (1978)
Min Temperature 46 °F 50 °F 34 °F (1961)
Degree Days  
Heating Degree Days 10    
Growing Degree Days 5 (Base 50)    
Moisture  
Dew Point 46 °F    
Average Humidity 74    
Maximum Humidity 93    
Minimum Humidity 48    
Precipitation  
Precipitation 0.02 in - - ()
Sea Level Pressure  
Sea Level Pressure 30.15 in    
Wind  
Wind Speed 10 mph (NNW)    
Max Wind Speed 15 mph    
Max Gust Speed 22 mph    
Visibility 10 miles    
Events      
Averages and records for this station are not official NWS values.
T = Trace of Precipitation, MM = Missing Value Source: NWS Daily Summary

Daily Weather History Graph

Daily Weather History Graph

Search for Another Location

Airport or City:

Trip Planner

Search our weather history database for the weather conditions in past years. The results will help you decide how hot, cold, wet, or windy it might be!

Date:

Astronomy

Sep. 04, 2011 Rise Set
Actual Time 6:43 AM CDT 7:54 PM CDT
Civil Twilight 6:12 AM CDT 8:25 PM CDT
Nautical Twilight 5:34 AM CDT 9:03 PM CDT
Astronomical Twilight 4:54 AM CDT 9:42 PM CDT
Moon 3:01 PM CDT (9/4) 11:43 PM CDT (9/4)
Length of Visible Light 14h 13m
Length of Day
13h 11m
Waxing Crescent, 50% of the Moon is Illuminated
Sep 4
Waxing Crescent
Sep 4
First Quarter
Sep 12
Full
Sep 20
Last Quarter
Sep 27
New

Hourly Weather History & Observations

Time (CDT) Temp. Dew Point Humidity Pressure Visibility Wind Dir Wind Speed Gust Speed Precip Events Conditions
12:53 AM 52.0 °F 46.9 °F 83% 30.01 in 10.0 mi NW 10.4 mph - N/A   Clear
1:53 AM 50.0 °F 46.9 °F 89% 30.03 in 10.0 mi WNW 8.1 mph - N/A   Clear
2:31 AM 51.8 °F 46.4 °F 82% 30.02 in 10.0 mi NNW 9.2 mph - N/A   Mostly Cloudy
2:53 AM 51.8 °F 48.2 °F 88% 30.03 in 10.0 mi NNW 13.8 mph 18.4 mph N/A   Overcast
3:53 AM 51.8 °F 46.4 °F 82% 30.04 in 10.0 mi NW 10.4 mph - N/A   Mostly Cloudy
4:53 AM 52.0 °F 48.0 °F 86% 30.06 in 10.0 mi NW 13.8 mph 19.6 mph N/A   Overcast
5:19 AM 53.6 °F 48.2 °F 82% 30.06 in 10.0 mi NNW 12.7 mph 20.7 mph N/A   Overcast
5:34 AM 51.8 °F 46.4 °F 82% 30.06 in 10.0 mi NNW 10.4 mph 20.7 mph N/A   Overcast
5:53 AM 52.0 °F 46.9 °F 83% 30.08 in 10.0 mi NNW 10.4 mph - N/A   Overcast
6:53 AM 52.0 °F 46.9 °F 83% 30.11 in 10.0 mi NNW 11.5 mph - N/A   Overcast
7:53 AM 52.0 °F 46.9 °F 83% 30.14 in 10.0 mi North 12.7 mph - N/A   Mostly Cloudy
8:43 AM 53.6 °F 46.4 °F 77% 30.15 in 10.0 mi North 10.4 mph - N/A   Scattered Clouds
8:53 AM 54.0 °F 46.0 °F 75% 30.17 in 10.0 mi North 11.5 mph - N/A   Scattered Clouds
9:05 AM 53.6 °F 46.4 °F 77% 30.15 in 10.0 mi North 13.8 mph - N/A   Mostly Cloudy
9:32 AM 53.6 °F 44.6 °F 72% 30.16 in 10.0 mi North 11.5 mph - N/A   Partly Cloudy
9:53 AM 54.0 °F 44.1 °F 69% 30.19 in 10.0 mi North 15.0 mph - N/A   Clear
10:53 AM 57.9 °F 45.0 °F 62% 30.20 in 10.0 mi North 13.8 mph - N/A   Partly Cloudy
11:53 AM 60.8 °F 42.8 °F 52% 30.18 in 10.0 mi North 12.7 mph 21.9 mph N/A   Partly Cloudy
12:53 PM 60.1 °F 44.1 °F 55% 30.20 in 10.0 mi NW 15.0 mph 21.9 mph N/A   Overcast
1:53 PM 64.0 °F 44.1 °F 48% 30.19 in 10.0 mi NNW 9.2 mph 18.4 mph N/A   Mostly Cloudy
2:53 PM 55.9 °F 48.9 °F 77% 30.21 in 10.0 mi NNW 8.1 mph - 0.02 in   Overcast
3:53 PM 61.0 °F 46.9 °F 60% 30.20 in 10.0 mi NNW 8.1 mph 18.4 mph 0.00 in   Scattered Clouds
4:53 PM 63.0 °F 43.0 °F 48% 30.19 in 10.0 mi North 12.7 mph 20.7 mph N/A   Clear
5:53 PM 62.1 °F 44.1 °F 52% 30.20 in 10.0 mi NW 12.7 mph - N/A   Partly Cloudy
6:53 PM 61.0 °F 43.0 °F 52% 30.21 in 10.0 mi NNW 10.4 mph - N/A   Partly Cloudy
7:53 PM 55.9 °F 46.0 °F 69% 30.21 in 10.0 mi NW 5.8 mph - N/A   Mostly Cloudy
8:53 PM 52.0 °F 44.1 °F 74% 30.22 in 10.0 mi NW 3.5 mph - N/A   Clear
9:53 PM 48.0 °F 44.1 °F 86% 30.23 in 10.0 mi Calm Calm - N/A   Clear
10:53 PM 46.0 °F 44.1 °F 93% 30.23 in 10.0 mi Calm Calm - N/A   Clear
11:53 PM 46.0 °F 44.1 °F 93% 30.22 in 10.0 mi Calm Calm - N/A   Clear